BEIDOU-3 IGSO-3

Last updated on Tue Sep 16 2025 00:02:50 GMT+0000 (Coordinated Universal Time)

1 44709U 19073A 25258.47238530 -.00000154 00000+0 00000+0 0 9997 2 44709 55.2723 283.8675 0045580 191.7386 168.2169 1.00270835 21705
UTC large
Height (km)
Speed (km/s)
/
Latitude / Longitude
Inclination (degrees)
Orbital Period (minutes)
Azimuth
Elevation
Range (km)
Doppler Factor

Next 0 passes for location: London (51.5072 / 0.1276)

Sorry there are no passes over London.